EST,Max TemperatureF,Mean TemperatureF,Min TemperatureF,Max Dew PointF,MeanDew PointF,Min DewpointF,Max Humidity, Mean Humidity, Min Humidity, Max Sea Level PressureIn, Mean Sea Level PressureIn, Min Sea Level PressureIn, Max VisibilityMiles, Mean VisibilityMiles, Min VisibilityMiles, Max Wind SpeedMPH, Mean Wind SpeedMPH, Max Gust SpeedMPH,PrecipitationIn, CloudCover, Events, WindDirDegrees
2013-1-1,37,30,23,27,20,10,72,60,47,30.04,29.93,29.87,,,,8,5,,0.05,,,278
2013-1-2,30,23,16,17,12,9,78,61,45,30.20,30.10,30.04,,,,8,3,17,0.00,,,339
2013-1-3,30,23,16,18,14,11,88,65,49,30.22,30.15,30.08,,,,9,2,,0.02,,,221
2013-1-4,35,31,27,23,19,16,72,60,50,30.09,30.04,29.97,,,,10,4,21,0.04,,,221
2013-1-5,41,32,24,23,19,16,88,62,41,30.31,30.22,30.05,,,,9,2,20,0.02,,,316
2013-1-6,41,34,28,28,26,23,85,71,53,30.23,30.08,29.99,,,,8,2,,0.04,,,216
2013-1-7,42,32,21,28,23,19,92,73,41,30.41,30.31,30.09,,,,8,1,,0.06,,,283
2013-1-8,44,32,21,28,24,18,92,79,51,30.43,30.39,30.36,,,,7,1,,0.09,,,208
2013-1-9,41,31,21,34,27,18,92,82,70,30.40,30.30,30.16,,,,6,1,,0.10,,,194
2013-1-10,46,37,28,28,24,21,85,59,39,30.56,30.48,30.30,,,,8,3,17,0.14,,,353
2013-1-11,39,34,28,37,31,25,100,85,67,30.55,30.35,30.13,,,,5,1,,0.38,,,205
2013-1-12,41,38,35,40,37,34,100,97,93,30.19,30.16,30.13,,,,0,0,,0.27,,,-1
2013-1-13,46,41,36,45,41,36,100,97,96,30.16,30.09,30.02,,,,6,1,,0.08,,,202
2013-1-14,55,46,35,49,38,26,100,79,49,30.32,30.13,29.94,,,,8,2,20,0.11,,,10
2013-1-15,36,33,30,31,27,24,92,76,62,30.37,30.30,30.24,,,,5,1,,0.16,,,17
2013-1-16,33,30,28,32,29,27,96,93,88,30.22,30.00,29.86,,,,8,3,,0.51,,,3
2013-1-17,39,36,33,31,26,23,92,70,55,30.12,30.05,29.95,,,,9,3,16,0.09,,,12
2013-1-18,32,28,23,23,10,1,69,52,34,30.47,30.35,30.03,,,,12,5,20,0.08,,,2
2013-1-19,45,35,25,27,21,9,70,56,44,30.38,30.16,29.91,,,,12,6,22,0.04,,,208
2013-1-20,48,38,26,27,19,9,64,49,23,30.06,29.84,29.71,,,,14,7,25,0.00,,,242
2013-1-21,27,24,21,18,12,5,78,59,43,30.09,30.00,29.87,,,,8,2,,0.06,,,200
2013-1-22,21,16,10,9,0,-8,74,53,33,30.24,30.07,29.86,,,,10,4,24,0.02,,,313
2013-1-23,16,12,7,3,-3,-7,80,57,38,30.28,30.23,30.19,,,,10,4,17,0.14,,,262
2013-1-24,21,13,5,3,-1,-4,83,58,33,30.46,30.31,30.17,,,,14,3,24,0.10,,,348
2013-1-25,21,15,7,13,4,-3,88,65,46,30.46,30.30,30.10,,,,6,2,16,3.92,,,293
2013-1-26,26,14,3,10,4,-1,88,64,41,30.42,30.22,30.09,,,,9,2,20,3.31,,,348
2013-1-27,32,19,6,14,8,2,87,67,35,30.56,30.51,30.43,,,,7,1,,3.49,,,310
2013-1-28,33,26,18,32,25,13,96,86,71,30.51,30.25,30.03,,,,8,2,,3.01,,,208
2013-1-29,48,40,33,42,37,32,96,90,69,30.16,30.09,30.02,,,,6,1,,0.23,,,198
2013-1-30,62,50,39,57,48,39,100,94,83,30.02,29.71,29.32,,,,10,2,23,0.59,,,196
2013-1-31,60,44,27,57,26,8,100,58,36,29.79,29.44,29.03,,,,16,8,33,1.47,,,246